Other Public Products
Issued by NWS Grand Forks, ND

Home | Current Version | Previous Version | Graphics & Text | Print | Product List | Glossary On
Versions: 1 2 3 4 5 6 7 8 9 10 11 12 13 14 15 16 17 18 19 20 21 22 23 24 25 26 27 28 29 30 31 32 33 34 35 36 37 38 39 40 41 42 43 44 45 46 47 48 49 50
000
FPUS83 KFGF 230031
OPUFGF
PRAIRIE TO PINES WEATHER ROUNDUP
NATIONAL WEATHER SERVICE EASTERN NORTH DAKOTA/GRAND FORKS ND
700 PM CDT MON AUG 22 2016

 **SATELLITE DATA USED TO AUGMENT SKY COVER AT AUTOMATED STATIONS**
 *****  WEATHER ACROSS EASTERN NORTH DAKOTA  *****

CITY           SKY/WX    TMP DP  RH WIND       PRES   REMARKS
GRAND FORKS    MOSUNNY   82  67  60 S14       29.65S
6HR MIN TEMP:  78; 6HR MAX TEMP:  85;

GRAND FORKS AF SUNNY     80  68  65 S10       29.66S
GRAND CITY NWS NOT AVBL
BUXTON           N/A     81  73  76 SE7         N/A
DEVILS LAKE    SUNNY     80  69  69 SE13      29.65S
6HR MIN TEMP:  77; 6HR MAX TEMP:  84;

FARGO          SUNNY     83  68  60 SE12      29.67F
6HR MIN TEMP:  78; 6HR MAX TEMP:  84;

WAHPETON ARPT  CLEAR     81  66  61 SE8       29.69S
$$

 *****  WEATHER ACROSS CENTRAL AND WESTERN NORTH DAKOTA  *****

CITY           SKY/WX    TMP DP  RH WIND       PRES   REMARKS
JAMESTOWN      SUNNY     80  69  69 SE12      29.65F
6HR MIN TEMP:  77; 6HR MAX TEMP:  82;

BISMARCK       SUNNY     88  70  55 E9        29.58F HX  93
6HR MIN TEMP:  77; 6HR MAX TEMP:  89;

MINOT          SUNNY     92  55  28 SE12      29.58S HX  90
6HR MIN TEMP:  90; 6HR MAX TEMP:  96;

MINOT AFB      SUNNY     91  57  32 SE13      29.57S
6HR MIN TEMP:  91; 6HR MAX TEMP:  95;

GARRISON         N/A     89  62  40 S8        29.59S
6HR MIN TEMP:  85; 6HR MAX TEMP:  93;

WILLISTON      CLOUDY    97  25   7 W10       29.57S HX  90
6HR MIN TEMP:  89; 6HR MAX TEMP:  99;

DICKINSON      SUNNY     93  44  18 S6        29.58F
6HR MIN TEMP:  91; 6HR MAX TEMP:  97;

HETTINGER      LGT RAIN  89  58  34 W7        29.62S
6HR MIN TEMP:  88; 6HR MAX TEMP:  97; 6HR PCP: TRACE;

$$

 *****  OTHER OBSERVATIONS NORTHEAST NORTH DAKOTA  *****

CITY           SKY/WX    TMP DP  RH WIND       PRES   REMARKS
WALHALLA       FAIR      81  77  89 SE12      29.64S
LANGDON        CLOUDY    81  66  61 S9        29.67S
CAVALIER       FAIR      82  66  57 S8        29.65R
GRAFTON        FAIR      81  68  65 S10       29.67S
CANDO          FAIR      79  68  69 SE12      29.66S
FORT TOTTEN      N/A     81  66  61 SE9       29.95S
ROLLA            N/A     79  63  57 S8        29.66S
RUGBY          NOT AVBL
 ***** THE ABOVE OBSERVATIONS ARE NON NWS ARE NOT QUALITY
        CONTROLLED AND MAY MIS-REPORT RAIN FOR SNOW...
$$

 *****  OTHER OBSERVATIONS SOUTHEAST NORTH DAKOTA *****

CITY           SKY/WX    TMP DP  RH WIND       PRES   REMARKS
COOPERSTOWN    NOT AVBL
VALLEY CITY    FAIR      82  72  69 S13       29.69S
OAKES            N/A    N/A N/A N/A MISG        N/A
GWINNER        FAIR      81  72  74 SE7       29.67F
SHEYENNE NWR     N/A     85  70  59 S7        29.95S
BUFFALO          N/A     79  68  67 SE9         N/A
WYNDMERE         N/A     84  72  65 S3          N/A
 ***** THE ABOVE OBSERVATIONS ARE NON NWS ARE NOT QUALITY
       CONTROLLED AND MAY MIS-REPORT RAIN FOR SNOW...
$$

  *****  WEATHER ACROSS NORTHERN MINNESOTA  *****

CITY           SKY/WX    TMP DP  RH WIND       PRES   REMARKS
FLAG ISLAND    SUNNY     75  68  78 CALM      29.70R
WARROAD        SUNNY     81  68  65 S5        29.71S
ROSEAU         SUNNY     81  66  61 S8        29.70S
HALLOCK        SUNNY     82  64  54 S14       29.66R
THF RVR FALLS  SUNNY     80  66  62 S13       29.72S
6HR MIN TEMP:  77; 6HR MAX TEMP:  82;

HALSTAD          N/A     81  68  64 S10         N/A
FOSSTON        SUNNY     77  64  65 S8        29.74S
BAUDETTE       SUNNY     79  64  60 S9        29.73S
6HR MIN TEMP:  79; 6HR MAX TEMP:  82;

WASKISH        SUNNY     77  64  65 CALM      29.75S
CROOKSTON      SUNNY     81  66  61 S10       29.69S
$$
  *****  WEATHER ACROSS CENTRAL AND WEST MINNESOTA  *****

CITY           SKY/WX    TMP DP  RH WIND       PRES   REMARKS
BEMIDJI        SUNNY     77  65  67 S7        29.76S
PARK RAPIDS    SUNNY     80  66  62 S10       29.77S
6HR MIN TEMP:  77; 6HR MAX TEMP:  82;

WADENA         SUNNY     79  66  65 S7        29.76S
DETROIT LAKES  SUNNY     79  68  69 SE7       29.75S
MOORHEAD       SUNNY     81  68  65 SE8       29.69S
FERGUS FALLS     N/A     81  70  69 S10       29.72F
ELBOW LAKE     FAIR      80  71  74 S13       29.74S
MORRIS MN      SUNNY     82  70  65 S12       29.74S
STAPLES        SUNNY     79  64  61 S8        29.78S
WHEATON        SUNNY     82  72  69 S10G17    29.72S
$$
  *****  WEATHER ELSEWHERE ACROSS MINNESOTA  *****

CITY           SKY/WX    TMP DP  RH WIND       PRES   REMARKS
DULUTH         MOSUNNY   78  63  59 SW14      29.84S
6HR MIN TEMP:  77; 6HR MAX TEMP:  81;

INTRNTL FALLS  SUNNY     78  63  59 S7        29.76R
6HR MIN TEMP:  78; 6HR MAX TEMP:  82;

ELY            PTSUNNY   75  61  60 S7        29.83S
CLOQUET        SUNNY     77  61  57 S9G17     29.84S
BRAINERD       SUNNY     79  66  64 S14       29.79S
6HR MIN TEMP:  75; 6HR MAX TEMP:  81;

HIBBING        CLOUDY    75  63  66 S5        29.81S
6HR MIN TEMP:  75; 6HR MAX TEMP:  78;

ALEXANDRIA     SUNNY     81  67  62 S14       29.79S
6HR MIN TEMP:  76; 6HR MAX TEMP:  83;

SAINT CLOUD    SUNNY     80  65  59 S14G24    29.82S
6HR MIN TEMP:  77; 6HR MAX TEMP:  82;

MINNEAPOLIS    MOSUNNY   81  59  47 S15G24    29.89R
6HR MIN TEMP:  80; 6HR MAX TEMP:  83;

$$

  *****  WEATHER ACROSS SOUTH DAKOTA  *****

CITY           SKY/WX    TMP DP  RH WIND       PRES   REMARKS
SIOUX FALLS    PTSUNNY   83  65  54 S25G33    29.83R
6HR MIN TEMP:  83; 6HR MAX TEMP:  88;

BROOKINGS      SUNNY     81  66  60 S17G29    29.79S
WATERTOWN      SUNNY     83  65  54 S21G30    29.75S
6HR MIN TEMP:  79; 6HR MAX TEMP:  85;

HURON          SUNNY     88  64  44 S15G25    29.69S
6HR MIN TEMP:  82; 6HR MAX TEMP:  91;

SISSETON         N/A     84  67  56 S13       29.69S
ABERDEEN       SUNNY     87  67  51 S16G25    29.64F HX  90
6HR MIN TEMP:  81; 6HR MAX TEMP:  89;

MITCHELL       SUNNY     87  65  47 S16G24    29.74S
PIERRE         CLOUDY    94  60  32 S18G28    29.59S HX  94
6HR MIN TEMP:  91; 6HR MAX TEMP:  99;

MOBRIDGE       CLOUDY    97  59  28 S18       29.53F HX  96
RAPID CITY     SUNNY     96  35  11 W5        29.67S HX  91
6HR MIN TEMP:  92; 6HR MAX TEMP: 101;

$$

  *****  SOME WEATHER IN NEARBY STATES *****

CITY           SKY/WX    TMP DP  RH WIND       PRES   REMARKS
GLASGOW MT     SUNNY     86  29  12 W12G25    29.62S
6HR MIN TEMP:  84; 6HR MAX TEMP:  92;

GREAT FALLS MT CLOUDY    76  19  11 SW26G33   29.78R
6HR MIN TEMP:  75; 6HR MAX TEMP:  81;

CHEYENNE WY    CLOUDY    76  36  23 E7        30.03R
6HR MIN TEMP:  76; 6HR MAX TEMP:  89; 6HR PCP: TRACE;

SCOTTSBLUFF NE CLOUDY    88  55  32 S14       29.81S
6HR MIN TEMP:  87; 6HR MAX TEMP:  94;

OMAHA NE       CLOUDY    81  60  48 S16G26    29.95F
6HR MIN TEMP:  81; 6HR MAX TEMP:  85;

DES MOINES IA  MOSUNNY   79  62  56 S9        30.02S
6HR MIN TEMP:  79; 6HR MAX TEMP:  83;

DAVENPORT IA   CLEAR     75  59  57 S9        30.11S
6HR MIN TEMP:  75; 6HR MAX TEMP:  79;

CHICAGO IL     CLEAR     75  53  46 SW10      30.13S
6HR MIN TEMP:  75; 6HR MAX TEMP:  78;

EAU CLAIRE WI  CLEAR     78  60  53 S16G24    29.95S
6HR MIN TEMP:  78; 6HR MAX TEMP:  81;

LA CROSSE WI   CLEAR     79  65  62 S17       30.00S
6HR MIN TEMP:  78; 6HR MAX TEMP:  83;

$$

  *****  SOME NATIONAL WEATHER *****

CITY           SKY/WX    TMP DP  RH WIND       PRES   REMARKS
LA GUARDIA NY  PTCLDY    75  51  43 NW17      30.10R
6HR MIN TEMP:  75; 6HR MAX TEMP:  79;                              C1F1C2F2C3F3C4F4C5F5C6F6C7F7C8F8C9F9CaFaCbFbCcFcCdFdCe!



USA.gov is the U.S. government's official web portal to all federal, state and local government web resources and services.